Juan de Fuca Strait - east entrance: Past 24 Hour Conditions

 

Halibut Bank - 46146

06:00 PM PDT 31 July 2014Buoy position: 49.34N 123.72W
This table is a summary of hourly weather conditions for the past 24 hours.
Date / Time
(PDT)
Wind(knots) Wave height(m) Wave period(s) Pressure(kPa) Air tempC) Water tempC)
31 July 2014
18:00 W 12 gust 14 0.4 3.0 101.6 22 22
17:00 W 14 gust 16 0.4 3.0 101.7 22 22
16:00 W 14 gust 16 0.3 3.0 101.7 21 22
15:00 W 12 gust 14 0.3 3.0 101.8 21 22
14:00 WNW 12 gust 14 0.3 3.0 101.9 20 21
13:00 W 12 gust 14 0.3 3.0 101.9 19 21
12:00 W 12 gust 14 0.4 3.0 102.0 19 21
11:00 W 12 gust 14 0.4 3.0 102.0 19 21
10:00 WNW 10 gust 12 0.4 4.0 102.0 19 21
9:00 W 12 gust 12 0.4 4.0 102.0 18 21
8:00 W 10 gust 12 0.4 4.0 102.0 19 21
7:00 WNW 10 gust 12 0.5 4.0 102.0 19 21
6:00 WNW 10 gust 12 0.5 4.0 102.0 19 21
5:00 W 12 gust 14 0.5 4.0 102.0 20 21
4:00 W 12 gust 16 0.5 4.0 101.9 20 21
3:00 W 16 gust 19 0.5 3.0 101.9 20 21
2:00 W 16 gust 18 0.4 3.0 101.9 21 22
1:00 W 14 gust 16 0.4 3.0 101.9 21 22
0:00 W 14 gust 16 0.3 3.0 101.8 22 22
30 July 2014
23:00 W 16 gust 18 0.2 2.0 101.8 22 22
22:00 WNW 8 gust 10 0.1 3.0 101.8 22 22
21:00 WSW 8 gust 8 0.1 3.0 101.8 22 23
20:00 W 6 gust 8 0.1 4.0 101.8 22 23
19:00 WSW 4 gust 4 0.1 5.0 101.8 22 23
18:00 N 2 gust 4 0.1 6.0 101.9 22 23
 
Map of Pacific - Georgia Basin marine weather areas Tsawwassen Ferry Terminal Sentry Shoal - 46131 Halibut Bank - 46146 La Perouse Bank - 46206 Discovery Island Esquimalt Harbour Kelp Reefs Malahat Race Rocks Lightstation Saturna Island Sheringham Point University of Victoria Victoria Gonzales Victoria Int'l Airport Ballenas Islands Campbell River Airport Comox Airport Entrance Island Fanny Island Nanaimo Airport Sisters Islets Estevan Point Tofino Airport Grief Point Powell River Airport Sechelt Point Atkinson Sand Heads Lightstation Vancouver Harbour Vancouver Int'l Airport West Vancouver Port Alberni Howe Sound - Pam Rocks Squamish Airport